Theta_e
349 347 349 347 346 352 353 349 350 350 349 345 341 343 348 347 346 347 346 349 349 352 349 348 348 348 352 348 342 350 342 347 347 349 346 345 346 350 349 348 347 350 350
347 345 347 347 349 353 352 349 351 351 348 345 343 343 351 353 351 350 349 352 353 349 353 349 354 353 348 350 352 351 347 347 351 353 346 351 349 346 349 347 345 348 348
350 348 344 347 341 345 348 350 349 350 346 344 344 341 351 349 349 351 352 349 349 354 354 352 351 349 345 346 349 339 345 347 348 346 346 346 350 350 347 344 349 343 348
350 348 348 344 342 341 345 348 349 351 347 343 341 347 348 349 352 350 352 353 353 352 350 347 349 350 348 351 349 343 338 338 346 346 347 347 345 344 329 330 339 347 348
352 351 349 346 345 346 344 344 345 348 346 341 346 345 347 349 349 351 353 354 353 350 349 353 354 353 353 346 345 339 341 343 347 349 349 348 348 347 346 342 341 343 347
353 352 346 347 346 344 345 346 345 346 344 344 344 346 347 349 352 352 351 351 348 349 348 354 351 350 349 342 338 337 344 346 348 341 345 345 343 344 351 349 338 335 332
353 352 351 347 346 344 346 347 344 343 343 343 346 345 348 347 351 352 351 353 350 352 351 351 352 353 352 347 342 334 343 345 348 341 347 347 334 340 350 344 343 335 339
352 352 351 347 345 343 345 344 342 345 344 346 346 342 337 339 343 346 354 353 353 354 350 352 353 352 348 346 344 341 340 346 351 342 348 340 329 341 348 347 348 346 341
352 351 350 350 348 341 342 344 344 345 345 345 343 338 338 337 345 342 346 348 351 350 354 351 348 345 345 345 344 341 340 342 348 343 347 336 334 333 332 337 339 347 345
352 352 352 351 350 349 347 348 348 344 342 349 346 339 336 343 349 344 343 342 344 349 345 344 345 342 340 341 343 342 343 345 350 352 348 339 333 331 335 336 338 341 348
354 353 353 352 351 351 351 351 352 350 347 348 340 337 338 349 353 353 353 339 337 338 340 339 339 337 335 337 341 340 342 344 345 348 346 343 344 340 334 336 334 333 331
355 355 353 355 355 354 352 351 353 354 352 349 347 345 344 351 352 355 350 340 338 340 341 343 341 338 336 342 344 346 341 347 348 349 347 346 345 343 342 335 335 335 336
355 355 355 355 354 355 353 349 353 354 351 348 347 350 348 350 348 347 343 349 348 349 350 350 350 348 350 350 348 348 349 345 345 349 348 348 347 345 343 341 334 333 333
355 356 356 353 355 355 352 353 353 354 349 347 348 349 349 352 348 347 347 349 350 351 352 352 353 349 349 348 347 345 344 344 344 346 348 347 348 348 344 342 337 334 332
351 349 356 354 357 354 350 350 352 350 346 348 348 349 350 350 349 348 350 348 348 349 349 345 348 346 349 350 348 348 345 345 344 345 348 345 345 348 346 342 340 338 336
350 351 355 354 353 357 354 355 351 349 350 349 349 350 351 350 349 350 351 350 348 348 348 349 342 352 351 350 349 347 345 343 344 343 345 349 345 348 348 343 342 342 340
351 351 352 354 354 356 353 356 353 351 348 350 347 349 353 354 352 349 348 348 349 349 349 346 345 350 349 351 349 347 346 347 343 342 342 344 347 346 348 345 341 342 342
350 352 354 353 354 354 355 354 352 351 349 349 348 349 350 350 350 350 350 351 350 349 349 349 348 351 352 349 351 349 346 346 343 342 340 341 345 348 348 350 345 341 342
353 354 355 354 355 355 356 353 355 352 352 351 350 349 348 351 351 352 351 351 350 350 350 350 349 347 349 350 350 350 349 345 344 345 343 342 343 347 349 347 350 345 344
355 356 357 356 356 357 358 355 355 354 353 352 352 351 350 350 350 351 352 351 350 350 351 351 352 350 351 352 352 349 351 349 347 344 343 344 346 346 346 346 347 350 347
356 358 359 360 359 359 359 357 357 356 354 354 354 354 353 355 354 353 351 350 350 351 347 338 334 348 348 347 347 347 349 351 352 348 346 348 344 344 344 347 346 350 349
358 360 362 362 362 360 359 358 357 355 356 355 356 356 356 356 355 354 353 351 351 350 347 346 339 337 344 346 346 346 349 349 348 350 350 348 348 346 345 344 345 347 351
358 361 363 363 364 361 359 359 359 359 358 355 357 358 356 354 354 355 354 353 352 353 351 350 349 346 347 347 345 347 350 353 350 347 350 350 349 348 347 346 345 343 344
357 361 363 364 364 364 361 362 360 359 358 357 354 354 354 351 352 351 353 352 352 349 350 351 350 351 351 350 348 347 345 347 350 349 347 351 350 351 349 347 347 346 345
354 359 363 364 365 364 362 362 361 359 356 357 350 350 349 343 338 341 347 349 349 348 349 349 352 353 352 352 351 350 346 342 340 347 349 348 348 349 348 346 344 345 346
352 353 361 365 366 363 365 364 363 363 362 356 352 343 343 340 336 333 338 337 339 342 344 344 343 346 348 348 349 351 351 348 345 346 347 348 350 350 351 349 349 348 346
Wind_Speed
15 17 17 17 18 20 20 21 22 23 23 24 23 22 22 21 19 18 16 15 14 14 14 16 16 15 15 13 14 13 15 16 15 15 17 17 15 12 11 13 15 13 13
21 20 19 18 18 18 19 19 19 20 21 21 19 18 19 17 17 17 16 14 13 14 16 16 16 15 12 13 13 13 12 14 14 13 16 17 14 14 13 13 13 12 11
19 19 22 18 20 19 17 17 18 18 18 18 16 14 15 15 16 16 15 15 15 14 14 14 13 14 13 12 11 12 8 11 13 11 18 15 12 12 12 11 13 11 10
21 19 20 19 20 19 16 16 17 16 17 16 14 13 14 16 16 15 14 14 14 14 14 14 15 15 15 14 10 10 9 7 7 6 4 9 13 11 11 10 11 11 11
22 21 21 20 19 17 19 17 16 16 16 16 14 13 14 13 14 14 13 13 12 13 13 12 15 14 14 12 9 11 8 4 3 4 3 13 14 11 11 13 11 10 8
22 19 22 20 19 18 18 17 17 17 16 15 14 14 14 13 13 12 13 13 13 12 12 12 13 13 12 13 10 9 7 5 6 12 12 17 11 10 9 11 8 8 9
24 21 21 20 18 19 17 15 16 15 15 14 14 15 13 12 11 12 11 13 12 12 12 11 11 10 9 7 8 6 4 3 5 9 8 7 11 11 8 7 6 7 8
22 21 19 19 19 19 16 15 16 14 14 14 13 12 11 11 10 10 11 11 11 10 11 10 8 7 5 5 4 5 3 1 4 9 12 9 9 9 9 7 6 5 6
21 21 19 18 19 19 17 15 15 14 14 13 11 10 10 9 10 11 10 9 9 9 7 7 6 4 3 2 1 1 1 2 0 4 13 11 8 7 7 7 7 5 4
21 20 21 19 18 17 15 14 13 13 12 11 10 8 7 7 8 9 9 7 7 6 6 6 5 4 3 1 1 2 4 6 11 5 14 8 8 5 6 7 7 8 7
21 21 19 18 17 17 15 13 14 12 12 9 8 6 5 7 7 5 5 2 3 4 4 4 4 5 5 4 2 2 3 7 4 2 15 8 7 4 6 7 7 8 8
20 19 17 17 17 17 14 13 12 11 11 9 7 7 6 9 11 5 3 3 2 3 5 5 4 6 6 6 9 3 3 7 12 12 12 7 4 0 5 7 8 8 9
19 19 18 16 17 19 18 16 17 15 15 9 11 9 6 4 3 4 12 10 8 9 10 8 6 7 10 6 3 5 7 12 8 8 6 4 3 3 6 8 9 9 10
24 27 22 17 16 21 17 18 17 20 16 13 15 13 10 4 7 9 8 8 13 14 14 10 12 10 7 6 6 9 9 15 14 8 13 2 2 7 7 9 10 11 11
22 17 23 17 11 13 14 8 9 15 14 14 13 14 11 10 11 9 9 10 16 12 4 8 6 11 9 9 11 9 12 16 15 11 11 8 7 10 11 11 11 12 13
16 18 19 15 12 7 7 3 4 5 5 7 7 13 14 10 11 12 12 13 14 12 7 5 20 14 12 12 11 12 12 16 18 15 11 9 10 11 15 16 14 13 13
17 16 17 15 13 10 9 5 5 8 8 7 9 7 9 10 6 11 16 15 17 11 10 11 20 16 17 15 14 14 15 19 17 18 16 15 14 15 18 19 18 15 14
17 16 17 15 16 14 13 11 10 9 9 9 10 10 15 13 13 14 15 17 19 19 15 13 16 18 16 17 16 18 16 18 18 21 20 20 21 23 18 21 22 22 18
19 17 15 14 15 15 13 12 9 9 9 12 12 11 11 11 11 13 14 17 19 18 18 17 18 21 21 21 24 22 25 22 22 20 23 24 22 23 19 19 23 24 22
20 18 16 14 13 14 12 12 11 11 11 12 15 15 14 10 10 13 15 17 18 19 18 23 21 21 21 21 14 17 14 22 21 24 24 23 24 26 29 26 24 28 26
19 19 17 16 16 14 13 13 10 13 13 17 15 17 12 9 14 16 17 21 21 20 18 28 29 23 26 29 23 27 27 25 25 25 27 28 28 29 29 29 25 26 28
21 20 19 17 16 17 15 13 14 11 12 17 11 11 7 8 14 17 20 20 22 22 21 26 32 32 25 23 20 25 6 16 22 27 32 31 31 31 29 30 31 31 28
23 22 21 19 17 16 16 14 9 9 11 11 10 9 8 11 13 18 19 20 20 21 21 23 26 28 28 29 26 15 4 4 10 21 34 34 33 32 31 29 29 34 36
23 24 20 20 17 16 15 15 12 10 9 9 9 5 8 9 14 16 15 18 20 20 20 20 21 24 23 22 22 29 32 17 5 11 30 21 36 34 28 26 25 31 32
24 24 24 22 20 17 18 17 12 11 11 5 6 4 5 12 12 13 16 12 10 12 18 19 19 20 20 22 25 21 25 30 30 20 10 21 30 22 26 29 31 29 25
24 25 26 24 20 20 17 16 15 8 5 4 6 9 10 12 14 14 15 17 16 14 13 16 19 20 22 23 24 26 24 14 18 21 12 18 24 30 23 31 34 29 31
Wind_Direction
117 117 108 114 114 110 112 119 115 116 113 111 106 91 89 88 91 92 96 97 96 92 93 97 98 99 88 80 87 86 95 100 100 99 99 101 103 101 95 102 95 91 96
127 126 115 118 118 118 118 120 119 115 120 117 112 92 91 92 93 94 94 99 99 97 95 98 99 101 104 96 91 93 96 105 109 115 112 107 90 96 96 93 105 102 106
126 135 124 130 129 124 120 118 118 120 123 121 116 86 87 92 92 88 90 94 98 93 93 95 100 101 103 104 96 103 105 113 111 118 106 106 97 95 97 93 91 98 102
130 135 133 137 135 128 122 117 115 116 119 122 109 91 89 91 94 92 94 96 96 93 98 102 103 99 97 99 97 105 106 112 127 133 202 115 101 92 90 95 111 103 99
135 140 145 143 139 137 131 120 116 118 119 116 104 102 96 90 90 93 94 96 92 97 103 106 105 102 99 104 102 109 103 95 42 2 96 127 107 103 95 89 91 107 123
133 129 145 142 144 142 134 128 126 123 119 113 112 109 103 99 94 91 99 93 98 102 108 105 103 101 98 94 96 123 117 78 63 82 101 113 119 118 100 122 118 119 117
123 128 137 144 145 147 142 134 134 121 117 120 123 117 109 104 104 100 99 103 103 112 112 114 110 103 103 94 90 114 133 67 43 107 114 120 113 118 117 119 110 113 124
131 132 137 144 149 148 145 145 140 127 123 124 124 122 116 109 107 106 104 107 109 115 122 125 124 114 103 98 96 110 169 107 6 120 145 120 113 133 132 129 126 119 120
127 132 141 147 153 156 153 152 151 142 134 137 139 134 127 117 118 109 111 112 118 127 128 134 147 138 127 129 111 156 202 267 179 173 160 120 114 138 148 153 159 155 149
139 141 145 149 152 156 162 164 163 165 153 147 150 151 151 146 135 117 116 114 128 142 149 168 179 187 202 229 254 303 330 351 307 265 145 122 117 141 161 163 174 169 171
132 139 147 153 157 161 161 164 166 177 180 173 175 178 196 189 155 116 175 134 141 148 165 179 206 223 231 215 238 312 302 103 163 335 160 124 102 138 175 183 181 188 191
137 139 151 149 160 163 160 172 169 178 187 196 207 236 273 256 169 149 234 277 223 189 194 201 212 212 218 220 248 248 244 271 272 175 155 126 87 48 196 198 200 197 200
144 154 153 160 162 163 165 163 185 188 191 200 210 224 264 303 234 260 244 243 234 220 212 218 231 220 224 258 113 253 243 275 283 117 135 127 25 327 222 211 210 208 211
165 154 154 164 161 169 173 185 178 182 190 195 202 211 245 289 265 275 272 292 245 233 231 215 228 249 243 246 251 262 254 261 276 242 192 212 303 293 240 219 215 215 215
136 147 147 165 179 169 170 207 187 181 184 207 203 213 208 233 262 256 252 273 278 306 248 258 285 264 260 238 236 241 249 260 274 281 212 242 243 266 249 226 217 220 221
144 152 141 152 173 171 175 166 203 200 223 212 219 223 209 209 246 259 266 252 258 269 294 271 334 280 254 252 242 238 249 250 262 263 275 236 240 269 249 229 224 223 224
155 167 155 162 174 183 194 194 197 240 245 261 239 223 223 219 244 273 284 288 293 291 248 270 236 266 270 263 256 256 245 251 245 251 256 257 260 259 251 238 233 225 224
167 168 164 181 179 188 197 198 210 239 266 241 262 266 222 226 244 252 271 279 279 283 262 244 250 249 254 259 260 248 238 248 249 247 244 248 249 249 250 239 238 232 226
164 170 174 180 174 188 199 214 221 242 258 273 286 282 266 238 248 253 257 275 287 298 297 282 260 274 265 265 246 254 243 241 242 251 244 240 241 247 246 246 244 238 233
163 175 181 181 187 190 201 209 231 244 250 251 251 250 255 267 273 268 264 274 279 288 298 293 298 282 281 271 297 291 262 244 242 244 247 249 243 242 241 245 247 239 233
174 178 186 187 191 193 200 207 218 236 244 249 251 261 271 273 268 273 278 279 275 276 267 272 271 287 284 286 303 286 282 282 254 250 246 244 238 241 242 238 241 243 230
178 182 186 195 195 197 207 219 226 244 262 253 265 271 281 288 274 276 282 273 273 274 274 264 257 276 272 273 282 282 267 278 268 259 253 247 241 236 236 238 235 237 234
181 183 187 195 202 205 214 219 217 235 264 266 256 253 258 286 277 272 281 289 283 280 276 269 272 268 269 271 248 238 284 249 299 276 246 241 241 237 231 232 239 240 238
185 182 190 188 198 203 206 229 219 228 242 258 236 218 262 289 280 285 283 283 285 286 278 275 268 268 276 272 266 253 247 262 297 304 300 278 238 234 223 229 239 244 239
187 182 181 186 193 200 202 216 228 229 247 299 358 324 324 303 335 315 300 309 301 296 291 293 293 290 284 276 269 257 247 240 237 255 277 283 287 270 236 234 244 241 243
191 184 177 177 187 197 194 209 221 250 260 316 305 318 314 318 324 320 327 324 325 319 310 303 300 299 293 284 279 271 260 232 216 238 243 263 267 279 266 238 231 237 240